Location: Tel Aviv
(32.0670°N, 34.7670°E)
Time: 12:20:58
(UTC+03:00)

Transit 2A - Pass Details

Date: 29 January 2022
Orbit: 598 x 960 km, 66.7° (Epoch: 20 May)

Event Time Altitude Azimuth Distance (km) Brightness Sun altitude
Rises 18:03:06 0° 349° (N) 3,547 9.4 -11.2°
Reaches altitude 10° 18:06:31 10° 7° (N) 2,545 8.5 -11.9°
Maximum altitude 18:10:33 19° 50° (NE) 1,924 7.5 -12.7°
Enters shadow 18:11:46 17° 67° (ENE) 1,960 7.5 -13.0°
Drops below altitude 10° 18:14:19 10° 94° (E) 2,374 - -13.5°
Sets 18:17:21 0° 113° (ESE) 3,225 - -14.1°
